Regional Weather Roundup
Issued by NWS

Home | Current Version | Previous Version | Text Only | Print | Product List | Glossary On
Versions: 1 2 3 4 5 6 7 8 9 10 11 12 13 14 15 16 17 18 19 20 21 22 23 24 25 26 27 28 29 30 31 32 33 34 35 36 37 38 39 40 41 42 43 44 45 46 47 48 49 50
314
ASUS43 KMKX 220020
RWRWI

WISCONSIN REGIONAL WEATHER ROUNDUP
NATIONAL WEATHER SERVICE MILWAUKEE/SULLIVAN WI
700 PM CDT THU MAY 21 2015

NOTE: "FAIR" INDICATES FEW OR NO CLOUDS BELOW 12,000 FEET WITH NO
SIGNIFICANT WEATHER AND/OR OBSTRUCTIONS TO VISIBILITY.

WIZ001-002-006>008-014>016-023>028-220100-
NORTHWEST WISCONSIN

CITY           SKY/WX    TMP DP  RH WIND       PRES   REMARKS
SUPERIOR ARPT  SUNNY     67  26  21 N12       30.00S
ASHLAND        SUNNY     62  43  49 N5        30.01S
6HR MIN TEMP:  60; 6HR MAX TEMP:  66;

HAYWARD        SUNNY     67  28  23 N12       30.00S
6HR MIN TEMP:  65; 6HR MAX TEMP:  69;

SIREN          SUNNY     69  30  23 N9        30.01S
CUMBERLAND     SUNNY     64  30  27 N13G18    30.00S
RICE LAKE      SUNNY     69  31  24 N8        30.01S
CHETEK         SUNNY     67  35  30 N9G16     29.99F
LADYSMITH      SUNNY     66  30  26 NW12G21   30.01S
EAU CLAIRE     NOT AVBL
MENOMONIE      SUNNY     71  28  20 NW14G21   29.99R
6HR MIN TEMP:  68; 6HR MAX TEMP:  74;

NEW RICHMOND   SUNNY     70  30  23 NW14G20   30.01F
OSCEOLA        SUNNY     69  32  25 NW10      30.04S
$$

WIZ003>005-009-010-017-018-220100-
NORTH CENTRAL WISCONSIN

CITY           SKY/WX    TMP DP  RH WIND       PRES   REMARKS
MANITOWISH WTR SUNNY     59  29  31 N9G18     30.01S
ARBOR VITAE    SUNNY     62  28  27 N15       30.01R
WOODRUFF       SUNNY     62  28  27 N15       30.01R
RHINELANDER    SUNNY     60  25  26 NW9G20    30.00S
6HR MIN TEMP:  60; 6HR MAX TEMP:  69;

EAGLE RIVER    SUNNY     60  23  24 N8        30.00R
LAND O LAKES   SUNNY     59  25  27 N10G17    30.01S
PHILLIPS       SUNNY     62  32  32 N7        29.99F
TOMAHAWK       SUNNY     62  25  24 NW10G16   30.01R
MEDFORD        SUNNY     63  31  30 N13       29.98S
MERRILL        SUNNY     64  29  26 N12G23    29.99R
$$

WIZ029-030-035-036-043>047-220100-
CENTRAL WISCONSIN

CITY           SKY/WX    TMP DP  RH WIND       PRES   REMARKS
WAUSAU         SUNNY     66  26  22 N16G22    29.95R
6HR MIN TEMP:  66; 6HR MAX TEMP:  72;

MOSINEE        MOSUNNY   66  30  26 N14G24    29.95S
MARSHFIELD     SUNNY     68  36  30 N12       29.96R
6HR MIN TEMP:  67; 6HR MAX TEMP:  74;

STEVENS POINT  MOSUNNY   69  36  30 NW10      29.94R
WAUPACA        MOSUNNY   73  31  21 W10G17    29.91S
WAUTOMA        NOT AVBL
WISC RAPIDS    MOSUNNY   71  31  22 NW15      29.95R
6HR MIN TEMP:  69; 6HR MAX TEMP:  75;

CAMP DOUGLAS   NOT AVBL
$$

WIZ011>013-019>022-031-037>040-048>050-220100-
NORTHEAST WISCONSIN

CITY           SKY/WX    TMP DP  RH WIND       PRES   REMARKS
ANTIGO         SUNNY     64  25  23 NW13      29.96R
SHAWANO        PTSUNNY   62  44  52 E10G17    29.94R
OCONTO         MOSUNNY   56  40  54 E13       29.96R
STURGEON BAY   MOSUNNY   55  30  38 E13G18    30.00R
6HR MIN TEMP:  55; 6HR MAX TEMP:  72;

GREEN BAY      PTSUNNY   59  42  53 E12       29.94R
6HR MIN TEMP:  59; 6HR MAX TEMP:  76; 6HR PCP:  0.02;

MANITOWOC      NOT AVBL
APPLETON       PTSUNNY   66  36  32 NW6       29.92S
CLINTONVILLE   LGT RAIN  68  36  30 N9G18     29.91S
OSHKOSH        MOSUNNY   70  37  29 W8        29.91S
6HR MIN TEMP:  67; 6HR MAX TEMP:  72; 6HR PCP: TRACE;

$$

WIZ032>034-041-042-053>061-220100-
SOUTHWEST WISCONSIN

CITY           SKY/WX    TMP DP  RH WIND       PRES   REMARKS
LA CROSSE      SUNNY     72  41  32 NW8       29.96F
6HR MIN TEMP:  72; 6HR MAX TEMP:  78;

SPARTA         SUNNY     71  32  23 NW12      29.97S
VIROQUA        SUNNY     69  35  28 NW16      29.98S
BOSCOBEL       SUNNY     74  32  21 W10       29.96S
6HR MIN TEMP:  70; 6HR MAX TEMP:  76;

PRAIRIE DU CHI SUNNY     73  25  16 NW14G23   29.96F
PLATTEVILLE    SUNNY     71  40  33 SW10      29.98F
$$

WIZ056-057-062-063-064-067-068-220100-
SOUTH CENTRAL WISCONSIN

CITY           SKY/WX    TMP DP  RH WIND       PRES   REMARKS
REEDSBURG      MOSUNNY   69  42  37 W6        29.94F
BARABOO/DELLS  MOSUNNY   67  36  31 SW8       29.94F
LONE ROCK      NOT AVBL
MINERAL POINT  SUNNY     72  37  28 SW8       29.98F
MADISON        MOSUNNY   69  38  32 VRB5      29.95F
6HR MIN TEMP:  66; 6HR MAX TEMP:  72;

MIDDLETON      PTSUNNY   71  33  25 SW10      29.97S
WATERTOWN      MOSUNNY   68  37  31 W9        29.94F
MONROE         SUNNY     68  41  37 SW13      29.99F
JANESVILLE     SUNNY     70  37  30 W12       29.98F
$$

WIZ051-052-058>065-066-070>072-220100-
SOUTHEAST WISCONSIN

CITY           SKY/WX    TMP DP  RH WIND       PRES   REMARKS
MILWAUKEE      MOSUNNY   70  32  24 W15       29.95F
6HR MIN TEMP:  65; 6HR MAX TEMP:  72;

WAUKESHA       MOSUNNY   66  34  30 W13       29.96F
MILWAUKEE/TIMM SUNNY     70  28  21 W13       29.95F
RACINE         SUNNY     69  34  27 W9        29.97F
6HR MIN TEMP:  65; 6HR MAX TEMP:  71;

BURLINGTON     SUNNY     67  34  29 W7G20     29.97F
KENOSHA        SUNNY     67  41  38 SW12      29.97F
6HR MIN TEMP:  65; 6HR MAX TEMP:  70;

FOND DU LAC    LGT RAIN  67  37  33 W13G33    29.93R
6HR MIN TEMP:  67; 6HR MAX TEMP:  74; 6HR PCP: TRACE;

SHEBOYGAN      CLOUDY    64  38  38 NE17      29.93R
6HR MIN TEMP:  64; 6HR MAX TEMP:  73;

WEST BEND      CLOUDY    70  32  24 SW10G18   29.93F
JUNEAU         MOSUNNY   69  37  30 SW17      29.95S
$$

LSZ147-162-220100-
LAKE SUPERIOR

STATION/POSITION TIME  TEMP    WIND        PRES    WAVE
                       AIR SEA DIR/SP/G            HT/PER
                 (UTC) (F)     (DEG/KT/KT) (MB)    (FT/S)
W MID LAKE BUOY  2250   40 37  110/  4/  6   N/A     1
DEVILS ISLAND    2300   56     210/  3/  5   N/A
PORT WING        2300   53      30/  4/  4   N/A
SAXON HARBOR     2300   56        CALM       N/A
$$

LMZ867-665-643>646-220100-
LAKE MICHIGAN

STATION/POSITION TIME  TEMP    WIND        PRES    WAVE
                       AIR SEA DIR/SP/G            HT/PER
                 (UTC) (F)     (DEG/KT/KT) (MB)    (FT/S)
CHAMBERS ISLAND  2200   55      40/ 16/ 24   N/A
N MID LAKE BUOY  2250   42 36  360/ 10/ 10   N/A     1/ 4
NORTHPORT PIER   2300   56      30/ 14/ 18   N/A
SISTER BAY       2317   59      20/ 13/ 20   N/A
KEWAUNEE LAKESHO 2300           30/  8/ 14   N/A
SHEBOYGAN LAKESH 2300   70     260/ 18/ 21   N/A
PORT WASHINGTON  2140   72     260/  7/ 13   N/A
ATWATER BUOY     2300   65 44  250/ 16/ 17   N/A
MILWAUKEE LAKESH 2300   70     280/ 10/ 14   N/A
S MID LAKE BUOY  2250   44 38  190/ 14/ 16   N/A     1/ 3
KENOSHA   LAKESH 2300   70     250/  9/ 17   N/A
$$

TC  - TEMPERATURE IN CELSIUS
VSB - VISIBILITY IN STATUTE MILES
WCI - WIND CHILL INDEX
HX  - HEAT INDEX




USA.gov is the U.S. government's official web portal to all federal, state and local government web resources and services.